{"data":{"norad_id":62125,"epoch":"2026-09-20T23:46:15.864096Z","epoch_age_seconds":139947,"freshness":"FRESH","line1":"1 62125U 24222M   26263.99046139  .00012478  00000+0  46199-3 0  9991","line2":"2 62125  43.0021 113.5732 0003101  44.9119 315.1983 15.27593720102513","mean_motion":15.2759372,"eccentricity":0.0003101,"inclination_deg":43.0021,"raan_deg":113.5732,"arg_perigee_deg":44.9119,"mean_anomaly_deg":315.1983,"bstar":0.00046199,"rev_number":10251,"period_min":94.26590206197,"perigee_km":480.88037266264,"apogee_km":485.13565480015,"semimajor_km":6861.1450137314,"source":"CELESTRAK","updated_at":"2026-09-22T09:00:49.525890Z"}}